587  
ASCA42 TJSJ 222010  
RWRPR  
PUERTO RICO/U.S. VIRGIN ISLANDS HOURLY WEATHER ROUNDUP  
NATIONAL WEATHER SERVICE SAN JUAN PR  
400 PM AST MON JUL 22 2019  
 
PRZ001>002-007>008-010-222100-  
PUERTO RICO  
 
CITY SKY/WX TMP DP RH WIND PRES REMARKS
 
SAN JUAN LMM MOSUNNY 86 73 66 NE21 29.98S HX 93  
AGUADILLA CLOUDY 79 75 89 SE7 30.02S  
CEIBA SUNNY 90 73 58 E12 30.01S HX 98  

 
 
VIZ001>002-222100-  
U.S. VIRGIN ISLANDS  
 
CITY SKY/WX TMP DP RH WIND PRES REMARKS
 
CHARLOTTE AMA SUNNY 88 73 62 SE15 29.99F HX 96  
CHRISTIANSTED MOSUNNY 88 72 58 E15 30.00F HX 94  

 
 
HOURLY WEATHER ROUNDUP FOR THE NEWS MEDIA  
 
CITY SKY/WX TMP DP RH WIND PRES REMARKS
 
ORLANDO LGT RAIN 85 75 72 E15 29.99F HX 93  
NEW YORK FAIR 84 77 79 SE10 29.75F HX 94  
NEWARK LGT RAIN 84 78 82 E7 29.71F HX 95  
CHICAGO FAIR 75 45 34 NE21G32 30.07S  
HARTFORD LGT RAIN 78 66 66 NE9 29.82F  
BOSTON CLOUDY 73 66 78 E9 29.85F  
DALLAS PTSUNNY 95 74 50 N14G21 29.97F HX 105  
PHILADELPHIA PTSUNNY 93 72 50 SW15 29.72F HX 101  
LOS ANGELES PTSUNNY 74 61 63 W10 29.99F  
WASHINGTON DC PTSUNNY 80 69 69 NW15 29.79R  
 
CLICK HERE TO GO TO PREVIOUS BULLETINS.

The Nexlab PR Page Main Text Page